ANZ815M NZHN-NZWN

Flight info

Callsign ANZ815M
Flight time 1h 8m
Altitude 20000
Route BIDKO1 DROPT H325 PM V242 DOGAD DOGAD4A
Aircraft AT76/M-V/N

Departure

Time 2026-04-14 10:52
Airport Hamilton International Airport (NZHN)

Arrival

Time 2026-04-14 12:00
Airport Wellington International Airport (NZWN)
Time Latitude Longitude Altitude Speed Heading
2026-04-14 10:29 -37.86604 175.33554 156 ft 0 kts 16°
2026-04-14 10:46 -37.86603 175.33554 156 ft 1 kts 17°
2026-04-14 10:46 -37.86601 175.33553 156 ft 0 kts 347°
2026-04-14 10:46 -37.86596 175.33540 156 ft 3 kts 298°
2026-04-14 10:46 -37.86587 175.33511 156 ft 4 kts 295°
2026-04-14 10:47 -37.86567 175.33465 156 ft 9 kts 289°
2026-04-14 10:47 -37.86544 175.33368 159 ft 13 kts 285°
2026-04-14 10:47 -37.86532 175.33285 162 ft 7 kts 256°
2026-04-14 10:47 -37.86576 175.33256 162 ft 10 kts 194°
2026-04-14 10:48 -37.86652 175.33228 161 ft 12 kts 195°
2026-04-14 10:48 -37.86733 175.33198 161 ft 12 kts 196°
2026-04-14 10:48 -37.86815 175.33168 161 ft 13 kts 196°
2026-04-14 10:48 -37.86905 175.33136 161 ft 14 kts 194°
2026-04-14 10:49 -37.86999 175.33100 162 ft 14 kts 196°
2026-04-14 10:49 -37.87097 175.33066 162 ft 19 kts 196°
2026-04-14 10:49 -37.87225 175.33020 161 ft 18 kts 197°
2026-04-14 10:49 -37.87333 175.32975 162 ft 15 kts 202°
2026-04-14 10:50 -37.87427 175.32965 162 ft 14 kts 155°
2026-04-14 10:50 -37.87448 175.32955 162 ft 3 kts 276°
2026-04-14 10:50 -37.87429 175.32949 162 ft 5 kts 357°
2026-04-14 10:50 -37.87402 175.32955 162 ft 3 kts
2026-04-14 10:51 -37.87382 175.32964 162 ft 4 kts 17°
2026-04-14 10:51 -37.87372 175.32968 162 ft 0 kts 18°
2026-04-14 10:51 -37.87342 175.32979 162 ft 20 kts 16°
2026-04-14 10:51 -37.86988 175.33107 162 ft 84 kts 17°
2026-04-14 10:52 -37.86258 175.33370 183 ft 131 kts 18°
2026-04-14 10:52 -37.85365 175.33795 610 ft 133 kts 22°
2026-04-14 10:52 -37.84528 175.34225 1177 ft 134 kts 25°
2026-04-14 10:52 -37.83694 175.34826 1676 ft 141 kts 28°
2026-04-14 10:53 -37.82873 175.35517 2270 ft 139 kts 31°
2026-04-14 10:53 -37.82076 175.36213 2745 ft 139 kts 32°
2026-04-14 10:53 -37.81278 175.36905 3072 ft 140 kts 27°
2026-04-14 10:53 -37.80423 175.37525 3349 ft 145 kts 26°
2026-04-14 10:54 -37.79489 175.38185 3482 ft 163 kts 23°
2026-04-14 10:54 -37.78449 175.38904 3698 ft 176 kts 24°
2026-04-14 10:54 -37.77374 175.39681 4007 ft 182 kts 25°
2026-04-14 10:54 -37.76282 175.40529 4354 ft 184 kts 28°
2026-04-14 10:55 -37.75375 175.41718 4610 ft 198 kts 63°
2026-04-14 10:55 -37.75199 175.43464 4830 ft 207 kts 99°
2026-04-14 10:55 -37.75532 175.45193 5272 ft 199 kts 111°
2026-04-14 10:55 -37.76113 175.46796 5594 ft 202 kts 122°
2026-04-14 10:56 -37.76844 175.48310 5893 ft 202 kts 136°
2026-04-14 10:56 -37.78003 175.49238 6103 ft 196 kts 173°
2026-04-14 10:56 -37.79308 175.49546 6464 ft 189 kts 182°
2026-04-14 10:56 -37.80625 175.49644 6810 ft 188 kts 187°
2026-04-14 10:57 -37.81974 175.49630 7027 ft 195 kts 190°
2026-04-14 10:57 -37.83313 175.49562 7354 ft 194 kts 190°
2026-04-14 10:57 -37.84672 175.49489 7666 ft 195 kts 190°
2026-04-14 10:57 -37.86023 175.49437 7977 ft 197 kts 189°
2026-04-14 10:58 -37.87400 175.49414 8277 ft 199 kts 188°
2026-04-14 10:58 -37.88790 175.49408 8585 ft 199 kts 188°
2026-04-14 10:58 -37.90183 175.49398 8874 ft 200 kts 189°
2026-04-14 10:58 -37.91530 175.49138 9148 ft 195 kts 203°
2026-04-14 10:59 -37.92839 175.48653 9444 ft 195 kts 206°
2026-04-14 10:59 -37.94128 175.48126 9717 ft 196 kts 206°
2026-04-14 10:59 -37.95435 175.47594 9973 ft 197 kts 206°
2026-04-14 10:59 -37.96750 175.47090 10232 ft 199 kts 204°
2026-04-14 11:00 -37.98084 175.46604 10473 ft 200 kts 204°
2026-04-14 11:00 -37.99419 175.46130 10706 ft 201 kts 204°
2026-04-14 11:00 -38.00453 175.45763 10887 ft 202 kts 204°
2026-04-14 11:00 -38.01801 175.45279 11118 ft 203 kts 204°
2026-04-14 11:01 -38.03164 175.44788 11350 ft 204 kts 204°
2026-04-14 11:01 -38.04540 175.44288 11589 ft 205 kts 204°
2026-04-14 11:01 -38.05908 175.43789 11822 ft 206 kts 204°
2026-04-14 11:01 -38.07300 175.43283 12055 ft 207 kts 204°
2026-04-14 11:02 -38.08642 175.42668 12279 ft 203 kts 215°
2026-04-14 11:02 -38.09861 175.41820 12546 ft 201 kts 219°
2026-04-14 11:02 -38.11066 175.40910 12789 ft 201 kts 220°
2026-04-14 11:02 -38.12279 175.39992 13021 ft 203 kts 220°
2026-04-14 11:03 -38.13482 175.39091 13257 ft 204 kts 219°
2026-04-14 11:03 -38.14718 175.38197 13490 ft 205 kts 218°
2026-04-14 11:03 -38.15965 175.37307 13687 ft 206 kts 218°
2026-04-14 11:03 -38.17226 175.36412 13876 ft 207 kts 218°
2026-04-14 11:04 -38.18491 175.35511 14065 ft 208 kts 218°
2026-04-14 11:04 -38.19749 175.34616 14237 ft 210 kts 218°
2026-04-14 11:04 -38.21024 175.33707 14429 ft 210 kts 219°
2026-04-14 11:04 -38.22332 175.32859 14590 ft 218 kts 205°
2026-04-14 11:05 -38.23895 175.32674 14717 ft 229 kts 188°
2026-04-14 11:05 -38.25503 175.32721 14860 ft 232 kts 186°
2026-04-14 11:05 -38.27102 175.32791 15026 ft 232 kts 186°
2026-04-14 11:05 -38.28726 175.32824 15195 ft 232 kts 188°
2026-04-14 11:06 -38.30331 175.32805 15367 ft 232 kts 189°
2026-04-14 11:06 -38.31957 175.32765 15530 ft 234 kts 189°
2026-04-14 11:06 -38.33581 175.32724 15672 ft 235 kts 189°
2026-04-14 11:06 -38.35218 175.32690 15839 ft 236 kts 189°
2026-04-14 11:07 -38.36863 175.32653 15985 ft 236 kts 189°
2026-04-14 11:07 -38.38495 175.32613 16138 ft 237 kts 189°
2026-04-14 11:07 -38.40156 175.32573 16286 ft 238 kts 189°
2026-04-14 11:07 -38.41822 175.32537 16433 ft 239 kts 189°
2026-04-14 11:08 -38.43471 175.32501 16574 ft 240 kts 189°
2026-04-14 11:08 -38.45149 175.32461 16725 ft 240 kts 189°
2026-04-14 11:08 -38.46814 175.32421 16845 ft 242 kts 189°
2026-04-14 11:08 -38.48507 175.32383 17002 ft 242 kts 189°
2026-04-14 11:09 -38.50183 175.32344 17145 ft 242 kts 189°
2026-04-14 11:09 -38.51864 175.32306 17273 ft 243 kts 189°
2026-04-14 11:09 -38.53574 175.32264 17400 ft 244 kts 189°
2026-04-14 11:10 -38.56970 175.32186 17670 ft 246 kts 189°
2026-04-14 11:10 -38.58680 175.32144 17788 ft 247 kts 189°
2026-04-14 11:10 -38.60401 175.32104 17904 ft 248 kts 189°
2026-04-14 11:10 -38.62134 175.32066 18008 ft 249 kts 189°
2026-04-14 11:11 -38.63855 175.32022 18115 ft 249 kts 189°
2026-04-14 11:11 -38.65594 175.31981 18203 ft 250 kts 189°
2026-04-14 11:11 -38.67333 175.31941 18312 ft 250 kts 189°
2026-04-14 11:11 -38.69074 175.31900 18409 ft 251 kts 189°
2026-04-14 11:12 -38.70813 175.31861 18494 ft 251 kts 189°
2026-04-14 11:12 -38.72557 175.31817 18587 ft 252 kts 189°
2026-04-14 11:12 -38.74318 175.31777 18689 ft 252 kts 189°
2026-04-14 11:12 -38.76080 175.31739 18757 ft 253 kts 189°
2026-04-14 11:13 -38.77836 175.31694 18859 ft 253 kts 189°
2026-04-14 11:13 -38.79574 175.31654 18937 ft 253 kts 189°
2026-04-14 11:13 -38.81352 175.31608 19024 ft 254 kts 189°
2026-04-14 11:13 -38.83123 175.31568 19103 ft 255 kts 189°
2026-04-14 11:14 -38.84890 175.31530 19188 ft 255 kts 189°
2026-04-14 11:14 -38.86678 175.31490 19262 ft 256 kts 189°
2026-04-14 11:14 -38.88455 175.31445 19333 ft 256 kts 189°
2026-04-14 11:14 -38.90227 175.31402 19417 ft 256 kts 189°
2026-04-14 11:15 -38.92001 175.31363 19544 ft 254 kts 189°
2026-04-14 11:15 -38.93784 175.31504 19630 ft 258 kts 178°
2026-04-14 11:15 -38.95548 175.31926 19672 ft 262 kts 174°
2026-04-14 11:15 -38.97348 175.32420 19686 ft 265 kts 174°
2026-04-14 11:16 -38.99161 175.32911 19697 ft 268 kts 174°
2026-04-14 11:16 -39.00591 175.33273 19699 ft 270 kts 175°
2026-04-14 11:16 -39.02429 175.33698 19700 ft 272 kts 176°
2026-04-14 11:16 -39.04290 175.34124 19710 ft 274 kts 176°
2026-04-14 11:17 -39.06180 175.34553 19705 ft 276 kts 176°
2026-04-14 11:17 -39.08077 175.34988 19699 ft 278 kts 176°
2026-04-14 11:17 -39.10003 175.35431 19696 ft 278 kts 176°
2026-04-14 11:17 -39.11898 175.35865 19698 ft 279 kts 176°
2026-04-14 11:18 -39.13819 175.36299 19701 ft 280 kts 176°
2026-04-14 11:18 -39.15732 175.36735 19707 ft 280 kts 176°
2026-04-14 11:18 -39.17659 175.37178 19694 ft 282 kts 176°
2026-04-14 11:18 -39.19564 175.37617 19691 ft 282 kts 176°
2026-04-14 11:19 -39.21513 175.38062 19691 ft 282 kts 176°
2026-04-14 11:19 -39.23453 175.38508 19692 ft 282 kts 176°
2026-04-14 11:19 -39.25388 175.38952 19696 ft 283 kts 176°
2026-04-14 11:19 -39.27315 175.39391 19703 ft 284 kts 176°
2026-04-14 11:20 -39.29261 175.39836 19699 ft 284 kts 176°
2026-04-14 11:20 -39.31232 175.40291 19688 ft 285 kts 176°
2026-04-14 11:20 -39.33161 175.40733 19685 ft 285 kts 176°
2026-04-14 11:20 -39.35133 175.41186 19686 ft 285 kts 176°
2026-04-14 11:21 -39.37089 175.41638 19686 ft 285 kts 176°
2026-04-14 11:21 -39.39038 175.42084 19687 ft 285 kts 176°
2026-04-14 11:21 -39.40974 175.42530 19679 ft 285 kts 176°
2026-04-14 11:21 -39.42936 175.42980 19669 ft 285 kts 175°
2026-04-14 11:22 -39.44889 175.43433 19672 ft 286 kts 175°
2026-04-14 11:22 -39.46853 175.43884 19674 ft 286 kts 175°
2026-04-14 11:22 -39.48809 175.44339 19675 ft 286 kts 175°
2026-04-14 11:22 -39.50784 175.44795 19684 ft 287 kts 175°
2026-04-14 11:23 -39.52753 175.45245 19675 ft 288 kts 175°
2026-04-14 11:23 -39.54724 175.45700 19673 ft 289 kts 175°
2026-04-14 11:23 -39.56701 175.46157 19674 ft 289 kts 175°
2026-04-14 11:23 -39.58672 175.46616 19669 ft 290 kts 175°
2026-04-14 11:24 -39.60659 175.47077 19667 ft 290 kts 175°
2026-04-14 11:24 -39.62648 175.47538 19667 ft 290 kts 175°
2026-04-14 11:24 -39.63970 175.47841 19671 ft 290 kts 175°
2026-04-14 11:24 -39.66626 175.48457 19666 ft 291 kts 175°
2026-04-14 11:25 -39.67957 175.48769 19660 ft 291 kts 175°
2026-04-14 11:25 -39.69956 175.49233 19661 ft 291 kts 175°
2026-04-14 11:25 -39.71959 175.49695 19680 ft 290 kts 175°
2026-04-14 11:25 -39.73927 175.50155 19653 ft 290 kts 175°
2026-04-14 11:26 -39.75900 175.50614 19664 ft 289 kts 176°
2026-04-14 11:26 -39.77878 175.51072 19670 ft 288 kts 175°
2026-04-14 11:26 -39.79852 175.51533 19661 ft 289 kts 175°
2026-04-14 11:26 -39.81849 175.51998 19663 ft 289 kts 175°
2026-04-14 11:27 -39.83825 175.52457 19657 ft 289 kts 175°
2026-04-14 11:27 -39.85803 175.52920 19655 ft 289 kts 175°
2026-04-14 11:27 -39.87775 175.53379 19653 ft 289 kts 175°
2026-04-14 11:27 -39.89757 175.53844 19654 ft 289 kts 175°
2026-04-14 11:28 -39.91735 175.54305 19656 ft 289 kts 175°
2026-04-14 11:28 -39.93720 175.54770 19653 ft 289 kts 175°
2026-04-14 11:28 -39.95689 175.55232 19664 ft 289 kts 175°
2026-04-14 11:28 -39.97680 175.55697 19660 ft 289 kts 175°
2026-04-14 11:29 -39.99643 175.56157 19651 ft 289 kts 175°
2026-04-14 11:29 -40.01232 175.56532 19652 ft 288 kts 175°
2026-04-14 11:29 -40.03213 175.56994 19650 ft 288 kts 175°
2026-04-14 11:29 -40.05171 175.57454 19646 ft 288 kts 175°
2026-04-14 11:30 -40.07158 175.57922 19648 ft 288 kts 175°
2026-04-14 11:30 -40.09138 175.58385 19624 ft 288 kts 175°
2026-04-14 11:30 -40.11087 175.58845 19621 ft 288 kts 175°
2026-04-14 11:30 -40.13057 175.59307 19618 ft 287 kts 175°
2026-04-14 11:31 -40.15009 175.59768 19619 ft 287 kts 175°
2026-04-14 11:31 -40.16998 175.60232 19618 ft 287 kts 175°
2026-04-14 11:31 -40.18956 175.60693 19625 ft 287 kts 175°
2026-04-14 11:31 -40.20911 175.61158 19619 ft 286 kts 175°
2026-04-14 11:32 -40.22863 175.61618 19618 ft 286 kts 175°
2026-04-14 11:32 -40.24820 175.62081 19617 ft 286 kts 175°
2026-04-14 11:32 -40.26798 175.62549 19621 ft 286 kts 175°
2026-04-14 11:32 -40.28761 175.63010 19618 ft 286 kts 175°
2026-04-14 11:33 -40.30698 175.63450 19620 ft 282 kts 180°
2026-04-14 11:33 -40.32593 175.63233 19624 ft 269 kts 200°
2026-04-14 11:33 -40.34355 175.62573 19617 ft 264 kts 209°
2026-04-14 11:34 -40.37707 175.60634 19623 ft 262 kts 214°
2026-04-14 11:34 -40.39344 175.59632 19641 ft 263 kts 213°
2026-04-14 11:34 -40.41024 175.58644 19625 ft 264 kts 212°
2026-04-14 11:34 -40.42719 175.57691 19624 ft 265 kts 212°
2026-04-14 11:35 -40.44409 175.56741 19625 ft 265 kts 212°
2026-04-14 11:35 -40.46108 175.55783 19628 ft 265 kts 212°
2026-04-14 11:35 -40.47785 175.54836 19631 ft 266 kts 212°
2026-04-14 11:35 -40.49492 175.53870 19626 ft 266 kts 212°
2026-04-14 11:36 -40.51201 175.52905 19622 ft 266 kts 212°
2026-04-14 11:36 -40.52893 175.51947 19624 ft 267 kts 212°
2026-04-14 11:36 -40.54603 175.50983 19620 ft 266 kts 212°
2026-04-14 11:36 -40.56307 175.50014 19621 ft 265 kts 212°
2026-04-14 11:37 -40.57982 175.49059 19612 ft 264 kts 212°
2026-04-14 11:37 -40.59685 175.48089 19626 ft 265 kts 212°
2026-04-14 11:37 -40.61382 175.47143 19620 ft 265 kts 212°
2026-04-14 11:37 -40.63059 175.46197 19616 ft 265 kts 212°
2026-04-14 11:38 -40.64755 175.45231 19631 ft 265 kts 212°
2026-04-14 11:38 -40.66458 175.44264 19614 ft 265 kts 212°
2026-04-14 11:38 -40.68158 175.43300 19611 ft 266 kts 212°
2026-04-14 11:38 -40.69848 175.42356 19633 ft 263 kts 211°
2026-04-14 11:39 -40.71536 175.41418 19623 ft 262 kts 212°
2026-04-14 11:39 -40.73196 175.40484 19626 ft 263 kts 212°
2026-04-14 11:39 -40.74883 175.39525 19626 ft 263 kts 213°
2026-04-14 11:39 -40.76570 175.38555 19630 ft 264 kts 213°
2026-04-14 11:40 -40.78246 175.37590 19632 ft 266 kts 213°
2026-04-14 11:40 -40.79956 175.36609 19629 ft 267 kts 212°
2026-04-14 11:40 -40.81678 175.35633 19636 ft 268 kts 212°
2026-04-14 11:40 -40.83391 175.34664 19606 ft 269 kts 212°
2026-04-14 11:41 -40.85099 175.33698 19626 ft 269 kts 212°
2026-04-14 11:41 -40.86832 175.32710 19625 ft 269 kts 212°
2026-04-14 11:41 -40.88543 175.31728 19620 ft 270 kts 212°
2026-04-14 11:41 -40.90279 175.30748 19597 ft 269 kts 212°
2026-04-14 11:42 -40.92022 175.29757 19218 ft 279 kts 212°
2026-04-14 11:42 -40.93811 175.28705 18763 ft 281 kts 213°
2026-04-14 11:42 -40.95592 175.27654 18299 ft 281 kts 213°
2026-04-14 11:42 -40.97395 175.26612 17820 ft 281 kts 211°
2026-04-14 11:43 -40.99169 175.25610 17302 ft 279 kts 212°
2026-04-14 11:43 -41.00518 175.24839 16895 ft 278 kts 212°
2026-04-14 11:43 -41.02280 175.23846 16407 ft 275 kts 211°
2026-04-14 11:43 -41.04031 175.22845 15941 ft 273 kts 211°
2026-04-14 11:44 -41.05770 175.21839 15478 ft 269 kts 212°
2026-04-14 11:44 -41.07383 175.20706 15030 ft 263 kts 218°
2026-04-14 11:44 -41.08938 175.19432 14578 ft 259 kts 220°
2026-04-14 11:44 -41.10438 175.18174 14132 ft 256 kts 219°
2026-04-14 11:45 -41.11950 175.16931 13727 ft 254 kts 218°
2026-04-14 11:45 -41.13455 175.15721 13314 ft 252 kts 218°
2026-04-14 11:45 -41.14961 175.14522 12849 ft 250 kts 218°
2026-04-14 11:45 -41.16434 175.13354 12437 ft 247 kts 218°
2026-04-14 11:46 -41.17909 175.12183 12024 ft 245 kts 218°
2026-04-14 11:46 -41.19376 175.11033 11621 ft 243 kts 217°
2026-04-14 11:46 -41.20821 175.09913 11222 ft 242 kts 217°
2026-04-14 11:46 -41.22280 175.08792 10818 ft 240 kts 218°
2026-04-14 11:47 -41.23716 175.07661 10444 ft 237 kts 218°
2026-04-14 11:47 -41.25112 175.06547 10090 ft 235 kts 217°
2026-04-14 11:47 -41.26522 175.05430 9675 ft 233 kts 217°
2026-04-14 11:47 -41.27888 175.04342 9325 ft 229 kts 219°
2026-04-14 11:48 -41.29211 175.03273 9098 ft 206 kts 218°
2026-04-14 11:48 -41.30383 175.02324 9009 ft 193 kts 220°
2026-04-14 11:48 -41.31535 175.01432 8686 ft 193 kts 220°
2026-04-14 11:48 -41.32668 175.00409 8328 ft 200 kts 224°
2026-04-14 11:49 -41.33547 174.99545 8057 ft 204 kts 225°
2026-04-14 11:49 -41.34691 174.98464 7715 ft 197 kts 222°
2026-04-14 11:49 -41.35810 174.97489 7376 ft 192 kts 221°
2026-04-14 11:49 -41.36922 174.96535 7038 ft 187 kts 221°
2026-04-14 11:50 -41.37992 174.95605 6735 ft 184 kts 222°
2026-04-14 11:50 -41.39056 174.94673 6439 ft 179 kts 224°
2026-04-14 11:50 -41.40070 174.93757 6166 ft 177 kts 224°
2026-04-14 11:51 -41.42113 174.91900 5711 ft 169 kts 223°
2026-04-14 11:51 -41.43076 174.91087 5719 ft 172 kts 217°
2026-04-14 11:51 -41.44323 174.90793 5503 ft 194 kts 189°
2026-04-14 11:51 -41.45720 174.90758 5267 ft 205 kts 188°
2026-04-14 11:52 -41.47178 174.90712 5029 ft 210 kts 188°
2026-04-14 11:52 -41.48544 174.90337 4746 ft 196 kts 219°
2026-04-14 11:52 -41.49325 174.89068 4520 ft 165 kts 254°
2026-04-14 11:52 -41.49690 174.87685 4311 ft 155 kts 262°
2026-04-14 11:53 -41.49912 174.86303 4108 ft 150 kts 269°
2026-04-14 11:53 -41.50020 174.84929 3908 ft 148 kts 273°
2026-04-14 11:53 -41.50046 174.83571 3724 ft 146 kts 276°
2026-04-14 11:53 -41.50018 174.82215 3535 ft 145 kts 278°
2026-04-14 11:54 -41.49965 174.80886 3348 ft 141 kts 279°
2026-04-14 11:54 -41.49584 174.79809 3169 ft 129 kts 327°
2026-04-14 11:54 -41.48699 174.79723 3024 ft 130 kts 354°
2026-04-14 11:54 -41.47808 174.79723 2851 ft 126 kts 349°
2026-04-14 11:55 -41.46952 174.79703 2679 ft 121 kts 352°
2026-04-14 11:55 -41.46132 174.79754 2524 ft 113 kts 355°
2026-04-14 11:55 -41.45405 174.79839 2383 ft 99 kts 354°
2026-04-14 11:55 -41.44750 174.79902 2252 ft 87 kts 351°
2026-04-14 11:56 -41.44177 174.79918 2148 ft 87 kts 349°
2026-04-14 11:56 -41.43550 174.79926 2026 ft 92 kts 353°
2026-04-14 11:56 -41.42905 174.79982 1886 ft 92 kts 355°
2026-04-14 11:56 -41.42286 174.80050 1773 ft 90 kts 355°
2026-04-14 11:57 -41.41668 174.80101 1642 ft 87 kts 354°
2026-04-14 11:57 -41.41073 174.80129 1527 ft 86 kts 353°
2026-04-14 11:57 -41.40446 174.80146 1417 ft 94 kts 355°
2026-04-14 11:57 -41.39772 174.80188 1285 ft 98 kts 360°
2026-04-14 11:58 -41.39105 174.80260 1157 ft 94 kts 358°
2026-04-14 11:58 -41.38446 174.80308 1016 ft 94 kts 359°
2026-04-14 11:58 -41.37790 174.80348 890 ft 96 kts
2026-04-14 11:58 -41.37107 174.80396 781 ft 100 kts
2026-04-14 11:59 -41.36399 174.80448 635 ft 105 kts
2026-04-14 11:59 -41.35662 174.80493 496 ft 108 kts
2026-04-14 11:59 -41.34919 174.80541 398 ft 103 kts 359°
2026-04-14 11:59 -41.34200 174.80604 194 ft 105 kts 359°
2026-04-14 12:00 -41.33486 174.80642 45 ft 102 kts
2026-04-14 12:00 -41.32845 174.80677 15 ft 64 kts
2026-04-14 12:00 -41.32686 174.80726 14 ft 9 kts 83°
2026-04-14 12:00 -41.32704 174.80811 14 ft 10 kts 161°
2026-04-14 12:01 -41.32788 174.80810 13 ft 10 kts 184°
2026-04-14 12:01 -41.32836 174.80808 13 ft 8 kts 185°
2026-04-14 12:01 -41.32867 174.80804 15 ft 0 kts 181°
2026-04-14 12:02 -41.32885 174.80803 14 ft 7 kts 181°
2026-04-14 12:02 -41.32956 174.80806 15 ft 9 kts 149°
2026-04-14 12:03 -41.32943 174.80875 12 ft 8 kts
2026-04-14 12:03 -41.32915 174.80909 12 ft 6 kts 73°
2026-04-14 12:03 -41.32915 174.80986 13 ft 10 kts 93°
2026-04-14 12:03 -41.32928 174.81040 14 ft 4 kts 144°
2026-04-14 12:04 -41.32945 174.81058 16 ft 3 kts 144°
2026-04-14 12:04 -41.32955 174.81068 15 ft 3 kts 140°
2026-04-14 12:04 -41.32960 174.81074 17 ft 0 kts 139°
2026-04-14 12:04 -41.32962 174.81077 17 ft 0 kts 139°